ORS 5 SENSORSAT

导读

ORS-5又名SensorSat,是美国于2017年8月26日发射的空间监视卫星,由麻省理工学院林肯实验室研发,由美国陆军第一太空作战中队负责作战控制,任务是对地球轨道航天器进行全球连续光学跟踪,监测美国卫星星座运行状态,追踪空间碎片与潜在威胁,为太空作战中心提供预警信息,配备专用光学传感器和多源成像系统,可对轨道目标进行常态化监测,服务美国太空态势感知体系建设。

Basic Information
目录编号:
42921
目录名称:
ORS 5 SENSORSAT
国际标识:
2017-050A
轨道中心:
EARTH
卫星名称:
ORS 5 SENSORSAT
卫星全名:
--
卫星状态:
在轨 (已飞行3304 天)
发射日期:
2017-08-26 UTC
国别 :
美国 (US)
星等 :
--
This satellite is enrolled in the Space Conjunction Data Service (SCDS) and the current flight risk assessment level is: No High Risk
Orbit Information
数据来源 国际轨道数据
星历时间: 2026-09-12T11:42:09+0800
5小时前
查看轨道信息
半长轴: 6941.506km
偏心率: 0.0010366
轨道倾角: 0.048°
近地点辐角 279.501°
升交点赤经 218.116°
平近点角 222.463°
近地点: 556.173km
远地点: 570.565km
周期: 95.927分钟
每日圈数: 15.011438
Detailed Information
使用方式:
暂无
2D Orbit Map
3D Orbit Map
Orbit Altitude Analysis Chart
Orbit Inclination Analysis Chart
Orbit Comprehensive Analysis Chart
View Comprehensive Chart
Conjunction Data List
Event ID Objects TCA Miss Dist (km) Collision Risk Probability Collision Risk Index (CRI) Action
CDM_260914-110904-292104-367622
2026-09-14T
11:09:14+0000
1.247 km
极远距离
1.052721E-5 中风险 0.55
CDM_260913-141504-116304-292124
2026-09-13T
14:15:12+0000
1.842 km
极远距离
3.038597E-6 低风险 0.45
Miss Distance Evolution Trend with All Objects
Collision Probability Evolution Trend with All Objects